Wind_Speed
39 39 40 40 40 41 41 41 41 42 43 43 43 42 42 42 43 43 43 43 44 44 44 45 46 46 46 46 47 48 49 50 50 50 50 49 49 48 48 48 47 47 46
38 39 40 41 41 41 41 42 42 42 41 42 41 42 42 42 42 43 43 43 44 44 44 45 45 46 47 46 47 48 48 49 49 49 50 50 49 48 47 47 48 48 48
38 38 39 39 40 40 41 41 42 41 41 41 40 41 42 42 41 42 43 43 43 43 44 45 44 44 44 45 46 47 47 48 49 50 50 50 50 49 49 48 47 48 48
37 37 38 38 39 40 41 41 40 40 40 40 41 41 40 41 41 42 42 42 42 43 44 44 44 44 45 45 45 45 47 47 48 49 49 50 49 49 49 49 48 48 47
35 36 37 38 38 39 39 39 39 39 39 40 40 40 40 40 40 41 41 42 42 43 42 42 43 43 43 44 44 44 45 45 46 47 48 48 48 49 48 48 47 48 47
35 36 36 37 37 38 38 38 38 38 39 39 39 39 39 39 40 41 41 42 42 42 42 43 43 42 43 43 43 44 44 44 44 45 46 46 47 47 47 46 46 46 46
35 36 36 36 37 37 37 38 38 38 38 38 38 38 39 39 40 40 41 40 40 41 41 42 43 43 43 43 43 44 44 44 44 44 44 45 46 47 47 46 46 46 45
35 35 35 35 36 36 36 36 37 37 37 37 37 38 39 39 40 41 41 41 41 41 42 42 43 43 43 44 44 44 44 43 44 45 45 45 45 45 45 45 45 45 45
35 35 35 35 35 35 35 36 36 36 37 37 38 38 39 39 40 40 40 41 41 41 42 42 42 43 43 43 43 43 44 44 45 45 46 46 46 46 45 44 43 44 44
35 35 34 35 35 34 35 35 35 35 36 37 37 37 38 38 39 39 39 39 40 40 40 41 41 41 41 41 41 42 42 43 43 44 44 44 44 44 44 43 43 43 44
34 34 34 34 33 34 34 35 35 35 35 35 36 37 37 37 37 38 38 39 39 39 38 38 39 39 39 39 39 39 39 39 40 40 40 40 40 41 41 41 41 41 41
33 33 32 32 33 34 34 34 34 35 35 35 36 36 36 36 37 37 37 36 36 36 36 37 37 37 37 37 36 36 36 36 36 36 36 37 38 38 38 39 39 39 39
32 32 32 32 32 33 34 34 35 35 36 35 34 34 34 35 35 35 35 35 35 35 35 35 35 35 35 35 35 35 35 34 34 34 35 35 36 36 36 37 37 38 38
31 31 31 32 31 31 32 32 33 33 33 33 33 33 33 34 34 33 33 33 33 34 34 34 34 34 34 34 34 34 34 34 34 34 34 34 34 35 35 35 36 36 36
30 30 30 31 31 30 30 30 30 31 31 31 32 32 33 33 33 33 33 33 33 33 33 33 33 33 33 32 32 33 33 33 34 34 34 33 33 33 34 34 35 35 36
29 29 29 29 29 29 28 29 29 30 30 31 31 31 31 31 31 32 33 33 32 32 33 32 32 32 32 32 32 32 33 33 33 33 33 34 34 34 34 34 35 36 36
27 27 28 28 28 28 28 28 28 28 29 30 30 30 30 31 31 31 31 31 32 32 32 32 32 32 32 32 32 32 33 33 33 33 34 34 34 34 34 34 35 36 36
26 26 26 26 27 27 27 27 27 28 28 29 30 31 31 31 31 31 30 30 30 31 31 31 31 31 31 31 32 33 33 33 33 33 33 34 35 35 35 35 35 35 36
25 25 25 25 25 26 26 27 27 28 28 28 29 30 30 30 30 30 29 29 29 29 29 30 30 30 31 31 31 32 32 32 33 32 33 33 35 35 35 35 35 35 34
24 24 24 24 25 25 26 27 27 28 28 28 28 28 28 28 28 28 28 28 27 27 28 28 29 29 29 30 30 30 31 32 32 32 32 33 33 33 33 33 33 33 32
23 23 24 24 24 25 25 26 26 27 26 26 27 27 26 26 27 27 27 27 27 27 27 28 28 28 29 30 30 31 31 32 32 31 31 31 31 31 31 30 31 30 30
22 22 22 23 23 24 24 25 25 24 24 24 25 25 25 26 26 25 25 26 26 27 27 27 27 28 29 29 30 30 31 31 31 31 31 30 29 29 28 28 28 27 27
21 21 21 21 21 22 22 22 22 23 23 23 23 24 24 24 24 24 24 25 26 26 27 27 28 28 29 29 29 30 30 31 30 29 29 29 28 27 27 26 26 25 25
19 19 19 20 20 21 21 21 21 21 22 22 22 22 22 22 22 23 23 24 24 25 26 27 27 28 28 28 29 29 29 29 28 28 28 28 27 26 26 25 24 24 25
17 17 17 17 18 18 18 19 19 20 20 20 21 21 21 21 21 22 22 23 23 24 24 25 26 27 27 27 27 26 26 27 27 27 27 26 25 25 25 24 24 24 24
16 16 16 16 16 17 18 18 18 19 19 19 19 19 19 19 20 21 22 22 22 23 23 24 25 25 25 25 25 25 25 25 25 25 25 24 24 24 24 24 24 24 23
Wind_Direction
266 265 264 263 264 263 263 263 263 262 261 261 261 261 261 261 261 262 263 264 266 267 268 268 268 270 271 271 271 272 273 273 274 274 275 275 275 274 274 274 275 275 275
266 265 265 264 264 264 264 264 263 262 260 260 261 260 261 262 263 264 265 265 266 268 268 269 269 270 271 272 272 272 273 274 274 275 275 275 275 274 273 274 275 275 275
266 265 265 265 264 265 265 265 264 263 261 261 261 262 262 263 264 265 265 265 266 267 267 268 270 271 272 273 274 274 274 275 275 275 276 276 276 275 274 274 274 276 275
266 266 266 266 266 266 265 265 264 262 261 262 261 262 263 264 264 265 266 266 267 268 269 268 269 270 272 274 275 275 276 276 275 275 276 276 276 276 275 275 275 276 275
267 267 267 267 267 266 266 265 264 263 262 263 263 262 263 264 265 266 266 267 268 269 269 269 269 271 273 274 275 276 276 276 276 275 275 275 276 276 276 276 276 276 276
268 268 268 268 268 267 266 265 264 263 263 264 264 263 264 265 266 267 267 268 269 269 270 270 270 271 272 274 275 276 276 277 277 277 277 277 277 276 276 276 277 276 276
270 270 270 269 268 268 266 265 264 264 265 265 265 264 265 266 267 268 269 270 270 270 271 271 271 272 273 274 276 276 277 277 277 279 280 279 278 277 276 277 277 277 276
270 270 269 269 268 267 266 265 265 265 265 265 265 265 266 267 268 269 270 270 271 271 272 272 273 274 274 275 276 277 277 277 278 279 280 280 279 278 277 277 277 277 277
270 270 269 269 268 267 266 265 266 265 264 265 267 267 268 268 270 271 271 271 272 272 272 273 274 275 275 276 276 277 278 278 278 279 280 280 280 278 277 276 276 276 276
269 269 269 269 268 266 265 266 266 266 266 267 268 269 270 270 271 272 272 272 272 272 273 274 275 276 276 277 277 278 279 279 280 281 281 282 281 280 277 276 276 276 275
269 269 269 269 268 267 267 267 266 267 267 268 270 270 271 271 272 273 273 273 274 274 274 275 275 276 276 277 277 279 280 281 282 282 282 282 282 281 278 276 276 276 276
268 268 269 268 267 267 267 266 266 267 268 270 270 270 271 273 274 274 273 273 274 274 275 275 276 276 276 276 277 279 281 282 282 283 284 284 283 281 279 278 276 275 277
268 268 267 268 268 268 267 266 266 267 268 269 271 272 273 274 275 274 272 272 273 275 276 276 276 276 276 276 277 278 279 281 282 284 286 286 285 283 281 279 277 276 277
268 268 268 269 269 269 267 265 266 267 269 271 272 273 274 275 274 274 273 273 274 274 275 275 275 275 275 275 276 277 278 280 283 284 285 286 285 284 282 279 278 278 279
269 269 269 269 268 267 267 267 268 269 270 272 274 275 275 275 274 273 274 274 273 273 274 274 274 274 274 274 275 276 278 280 282 283 284 285 284 283 282 280 280 280 279
270 269 268 268 268 268 269 269 270 272 272 273 275 275 274 274 274 274 274 274 273 272 272 273 274 274 274 274 275 276 278 280 281 283 283 283 283 284 283 282 282 281 281
270 269 267 267 267 267 269 271 271 273 273 274 274 274 274 275 276 275 274 273 272 270 271 272 273 274 274 274 276 277 278 280 281 282 283 282 282 283 283 283 283 283 283
269 269 268 267 267 268 270 272 274 275 276 276 275 274 275 275 276 276 275 274 273 272 272 272 273 274 274 275 276 278 279 281 282 283 283 282 283 284 284 284 284 284 285
269 269 269 269 268 269 272 274 275 276 277 277 276 276 276 276 276 276 275 276 275 273 273 273 274 274 275 276 277 279 281 282 283 284 285 284 284 284 284 284 285 285 286
270 269 269 270 270 271 273 275 277 277 277 277 276 276 276 276 276 276 276 276 275 274 274 274 275 276 277 278 278 280 282 283 284 285 287 287 286 285 285 285 286 286 286
270 269 270 270 272 274 275 276 277 278 278 276 275 275 275 276 277 276 275 276 275 274 274 275 277 279 280 280 280 281 283 284 285 286 288 288 288 288 287 286 286 286 287
271 271 271 271 272 274 276 277 278 279 278 277 276 276 276 276 277 277 276 276 276 276 275 275 277 280 281 282 283 283 285 286 287 288 289 289 290 289 288 288 287 287 288
270 271 271 272 274 276 278 279 280 280 279 279 279 278 277 277 277 277 276 276 277 276 275 275 277 280 282 283 283 284 286 287 288 289 290 290 290 289 289 288 287 288 289
270 270 271 273 276 278 280 281 282 283 282 281 280 279 278 278 278 277 277 277 278 278 277 277 278 281 283 284 285 285 286 287 288 289 290 291 290 289 288 288 289 291 292
269 270 273 277 279 280 282 283 283 283 283 283 281 280 279 279 279 280 279 280 280 281 280 279 280 282 284 285 285 285 286 288 289 290 290 290 290 289 288 289 291 292 292
267 270 274 277 279 281 283 284 285 285 285 284 284 282 281 280 281 282 283 284 283 283 284 284 285 286 286 286 285 286 287 290 291 291 290 289 289 289 288 289 290 291 292
Height
5640 5640 5641 5642 5642 5643 5644 5645 5646 5647 5649 5650 5651 5653 5654 5656 5657 5659 5660 5661 5662 5662 5663 5663 5664 5664 5664 5664 5664 5663 5663 5662 5663 5663 5662 5661 5660 5659 5658 5657 5657 5656 5655
5630 5630 5630 5631 5631 5632 5633 5634 5635 5636 5638 5639 5640 5642 5643 5645 5646 5647 5649 5649 5650 5650 5651 5651 5651 5652 5651 5651 5651 5650 5650 5649 5648 5649 5648 5647 5646 5646 5645 5644 5643 5643 5642
5619 5619 5620 5620 5620 5621 5622 5623 5624 5625 5626 5627 5629 5630 5632 5633 5635 5636 5637 5638 5638 5638 5639 5639 5639 5639 5639 5639 5638 5637 5636 5635 5635 5635 5635 5633 5633 5632 5631 5631 5630 5629 5628
5609 5609 5609 5609 5610 5610 5611 5612 5613 5614 5615 5616 5618 5619 5621 5622 5623 5624 5625 5625 5626 5626 5626 5627 5627 5627 5627 5626 5625 5624 5623 5622 5621 5621 5620 5620 5619 5618 5617 5617 5616 5615 5614
5599 5599 5599 5599 5599 5599 5600 5601 5602 5603 5605 5606 5607 5608 5609 5610 5611 5612 5613 5613 5614 5614 5614 5615 5615 5615 5614 5614 5613 5612 5611 5610 5608 5607 5607 5606 5605 5604 5604 5603 5602 5602 5601
5589 5589 5588 5588 5589 5589 5590 5591 5592 5593 5594 5595 5596 5597 5598 5599 5600 5601 5601 5602 5602 5602 5603 5603 5603 5603 5602 5601 5600 5599 5598 5597 5595 5594 5593 5593 5592 5591 5590 5589 5589 5588 5588
5579 5579 5579 5579 5579 5579 5579 5580 5581 5582 5583 5584 5586 5587 5588 5588 5589 5589 5590 5590 5590 5591 5591 5591 5590 5590 5589 5589 5588 5587 5585 5583 5582 5581 5580 5579 5578 5578 5577 5576 5575 5574 5573
5570 5569 5569 5569 5569 5569 5570 5570 5571 5572 5573 5574 5575 5576 5577 5577 5578 5578 5579 5579 5579 5579 5579 5578 5578 5578 5577 5576 5575 5574 5573 5571 5570 5569 5567 5566 5564 5563 5563 5562 5561 5560 5560
5560 5559 5559 5559 5559 5559 5560 5561 5561 5562 5563 5564 5565 5565 5566 5566 5567 5567 5567 5567 5568 5567 5567 5566 5566 5565 5565 5564 5563 5562 5561 5559 5557 5556 5554 5552 5551 5550 5549 5548 5547 5547 5547
5549 5549 5549 5549 5549 5550 5550 5551 5552 5552 5553 5554 5554 5555 5555 5556 5555 5555 5555 5556 5556 5556 5556 5555 5554 5553 5552 5551 5550 5549 5548 5547 5545 5543 5541 5539 5537 5536 5535 5535 5534 5534 5533
5539 5539 5539 5539 5540 5540 5541 5542 5542 5543 5543 5544 5545 5545 5545 5545 5544 5544 5544 5544 5545 5545 5544 5544 5543 5542 5541 5540 5539 5538 5536 5535 5533 5532 5529 5527 5525 5523 5522 5522 5521 5521 5520
5530 5530 5530 5530 5530 5530 5531 5532 5532 5533 5534 5534 5534 5534 5534 5534 5534 5533 5533 5533 5533 5533 5533 5533 5532 5531 5530 5529 5528 5527 5525 5524 5523 5521 5519 5516 5514 5512 5511 5510 5509 5508 5508
5520 5520 5520 5520 5520 5521 5522 5522 5523 5523 5524 5524 5524 5524 5524 5524 5523 5522 5523 5523 5522 5523 5522 5522 5522 5521 5520 5519 5518 5517 5516 5514 5512 5510 5508 5506 5504 5502 5500 5499 5498 5497 5496
5511 5511 5511 5511 5511 5511 5512 5512 5513 5514 5514 5514 5514 5514 5514 5513 5513 5512 5512 5512 5512 5512 5512 5512 5511 5511 5510 5509 5508 5507 5505 5504 5503 5501 5499 5496 5494 5492 5490 5488 5487 5486 5485
5502 5502 5502 5502 5502 5502 5502 5503 5503 5504 5504 5504 5504 5504 5504 5503 5503 5502 5502 5502 5502 5502 5502 5502 5501 5501 5500 5499 5498 5497 5495 5494 5493 5491 5489 5487 5484 5482 5480 5478 5477 5475 5475
5493 5493 5492 5492 5493 5493 5493 5494 5494 5494 5494 5494 5494 5494 5493 5493 5492 5492 5492 5492 5492 5492 5492 5492 5491 5491 5490 5489 5488 5487 5486 5484 5483 5481 5479 5477 5475 5472 5470 5468 5467 5465 5464
5484 5484 5484 5484 5484 5485 5485 5485 5485 5485 5484 5484 5484 5484 5484 5483 5483 5482 5482 5481 5481 5481 5481 5481 5481 5481 5480 5479 5478 5477 5476 5474 5473 5471 5469 5467 5465 5463 5460 5458 5457 5455 5454
5475 5475 5475 5475 5476 5476 5476 5476 5476 5476 5476 5475 5474 5474 5474 5473 5473 5472 5472 5472 5471 5471 5471 5471 5471 5471 5470 5470 5469 5467 5466 5464 5463 5461 5459 5457 5455 5453 5450 5449 5447 5445 5443
5467 5467 5467 5467 5467 5467 5467 5467 5467 5467 5466 5466 5465 5465 5464 5464 5463 5463 5462 5462 5462 5462 5462 5462 5462 5461 5461 5460 5459 5458 5456 5455 5453 5451 5449 5446 5444 5442 5440 5439 5437 5435 5433
5459 5459 5459 5459 5459 5459 5459 5459 5459 5458 5457 5457 5456 5456 5455 5455 5455 5454 5453 5453 5453 5453 5453 5453 5452 5452 5451 5451 5450 5448 5447 5445 5443 5441 5439 5436 5434 5432 5430 5428 5426 5425 5423
5451 5451 5451 5451 5451 5452 5451 5451 5450 5450 5449 5448 5448 5447 5447 5447 5446 5445 5445 5444 5444 5444 5444 5444 5444 5443 5442 5441 5440 5439 5437 5435 5433 5431 5429 5427 5424 5422 5420 5418 5417 5415 5413
5444 5444 5444 5444 5444 5444 5444 5443 5442 5441 5441 5440 5439 5439 5438 5438 5438 5437 5437 5436 5436 5436 5436 5436 5435 5435 5434 5432 5431 5430 5428 5426 5424 5422 5419 5417 5415 5413 5411 5409 5408 5406 5404
5438 5437 5437 5437 5437 5437 5436 5436 5435 5434 5433 5433 5432 5431 5431 5430 5430 5429 5429 5428 5428 5428 5427 5427 5427 5426 5425 5423 5422 5420 5419 5417 5415 5412 5410 5408 5406 5404 5403 5401 5399 5398 5396
5431 5431 5431 5431 5431 5430 5430 5429 5428 5427 5427 5426 5425 5424 5424 5423 5422 5422 5421 5421 5420 5420 5419 5418 5418 5417 5416 5414 5413 5411 5410 5408 5406 5404 5402 5400 5398 5396 5395 5394 5392 5390 5388
5426 5426 5426 5425 5425 5424 5424 5423 5422 5421 5420 5419 5418 5418 5417 5416 5416 5415 5414 5414 5413 5412 5411 5410 5409 5408 5407 5406 5404 5403 5401 5399 5398 5396 5394 5392 5391 5389 5388 5386 5385 5383 5381
5420 5420 5420 5420 5419 5419 5418 5417 5416 5415 5414 5413 5412 5411 5411 5410 5410 5409 5408 5407 5406 5405 5404 5403 5401 5400 5399 5397 5396 5395 5394 5392 5390 5388 5386 5385 5383 5382 5381 5379 5377 5376 5374